Weather in Turskaya Gorka

Russia / Novgorod Oblast     58°22′09″N   30°14′02″E
temp.,
°C
wind,
m/s
gust,
m/s
humid.,
%
clouds,
%
prec.,
mm/h
press.,
hPa
HPBL,
m
8 march, mon
mon800:00−7nw51280100 0.0 997733
03:00−7nnw498599 0.1 1000874
06:00−8n41084100 0.1 1003795
09:00−9n51082100 0.1 1006761
12:00−7n4873100 0.0 1009819
15:00−5n476592 0.0 10121060
18:00−7nnw367494 0.0 1014851
21:00−10nnw288868 0.0 1016381
9 march, tue
tue900:00−11nnw249621 0.0 1017157
03:00−12nnw239618 0.0 1018138
06:00−13nnw13960 0.0 1018113
09:00−12nne128723 0.0 1020205
12:00−9ne117097 0.0 1020494
15:00−8e116399 0.0 1020664
18:00−9ese3478100 0.0 1020432
21:00−11e4869100 0.1 1021480
10 march, wed
wed1000:00−12e5979100 0.3 1022441
03:00−13e51082100 0.3 1024450
06:00−15e5981100 0.0 1025394
09:00−16e497686 0.0 1027338
12:00−12e486014 0.0 1028457
15:00−9e485414 0.0 1027687
18:00−10e486237 0.0 1027616
21:00−11ese4107367 0.0 1028390
11 march, thu
thu1100:00−12ese3107970 0.0 1027388
03:00−13se497372 0.0 1027402
06:00−13se4106897 0.0 1025428
09:00−13se4108999 0.3 1025453
12:00−9sse4984100 0.5 1023486
15:00−6sse497596 0.5 1021561
18:00−6sse4108241 0.0 1019628
21:00−7sse5129067 0.0 1018599
12 march, fri
fri1200:00−8sse51390100 0.0 1015596
03:00−9se51487100 0.1 1012660
06:00−9se51482100 0.0 1008698
09:00−8se61489100 0.3 1005727
12:00−6se61288100 1.3 1002975
15:00−4se61190100 2.1 999929
18:00−3se51092100 0.7 997851
21:00−4se41096100 1.2 996478